Home   Weather   USA   Dayton   Past weeks
Flag for USA

Past Weather in Dayton, Ohio, USA — Yesterday and Last 2 Weeks

Currently: 56 °F. Scattered clouds. (Weather station: Dayton / Wright-Patterson Air Force Base, USA). See more current weather

Past Weather in Dayton — Graph

°F

Dayton Temperature Yesterday

Maximum temperature yesterday: 68 °F (at 2:56 pm)
Minimum temperature yesterday: 55 °F (at 11:56 pm)
Average temperature yesterday: 63 °F

High & Low Weather Summary for the Past Weeks

 TemperatureHumidityPressure
High82 °F (Apr 27, 4:56 pm)100% (Apr 25, 3:06 am)30.20 "Hg (Apr 25, 3:06 am)
Low30 °F (Apr 22, 2:56 am)28% (Apr 26, 3:56 pm)29.60 "Hg (May 3, 2:56 pm)
Average55 °F71%29.94 "Hg
* Reported Apr 20 7:28 pm — May 5 7:56 pm, Dayton. Weather by CustomWeather, © 2021

Note: Actual official high and low records may vary slightly from our data, if they occured in-between our weather recording intervals... More about our weather records

Dayton Weather History for the Previous 24 Hours

Scroll right to see more
 ConditionsComfort  
Time TempWeatherWind HumidityBarometerVisibility
7:56 pm
Wed, May 5
56 °FScattered clouds.6 mph46%30.09 "Hg10 mi
6:56 pm58 °FScattered clouds.8 mph42%30.08 "Hg10 mi
5:56 pm59 °FPassing clouds.10 mph43%30.07 "Hg10 mi
4:56 pm57 °FPartly sunny.12 mph46%30.07 "Hg10 mi
3:56 pm59 °FPartly sunny.13 mph46%30.06 "Hg10 mi
2:56 pm58 °FPartly sunny.12 mph49%30.05 "Hg10 mi
1:56 pm57 °FPartly sunny.10 mph50%30.03 "Hg10 mi
12:56 pm57 °FPartly sunny.13 mph55%30.02 "Hg10 mi
11:56 am54 °FPartly sunny.13 mph59%30.02 "Hg10 mi
10:56 am54 °FPartly sunny.12 mph59%30.00 "Hg10 mi
10:44 am54 °FPartly sunny.10 mph63%29.99 "Hg10 mi
10:24 am54 °FPartly sunny.15 mph67%29.98 "Hg10 mi
9:56 am53 °FMostly cloudy.14 mph72%29.98 "Hg10 mi
9:36 am52 °FPartly sunny.10 mph72%29.97 "Hg10 mi
9:06 am50 °FMore clouds than sun.10 mph82%29.95 "Hg10 mi
8:56 am50 °FMostly cloudy.12 mph83%29.95 "Hg10 mi
8:06 am50 °FMostly cloudy.7 mph88%29.93 "Hg10 mi
7:56 am50 °FMore clouds than sun.7 mph89%29.93 "Hg10 mi
7:26 am50 °FMostly cloudy.8 mph94%29.91 "Hg10 mi
6:56 am49 °FCloudy.9 mph92%29.89 "Hg10 mi
6:29 am50 °FOvercast.12 mph94%29.88 "Hg10 mi
5:56 am49 °FDrizzle. Overcast.9 mph93%29.86 "Hg10 mi
5:16 am50 °FLight rain. Mostly cloudy.6 mph94%29.87 "Hg10 mi
5:06 am50 °FLight rain. Mostly cloudy.8 mph94%29.86 "Hg10 mi
4:56 am51 °FLight rain. Overcast.9 mph93%29.85 "Hg10 mi
4:36 am50 °FLight rain. Mostly cloudy.7 mph94%29.85 "Hg10 mi
3:56 am51 °FDrizzle. Overcast.6 mph88%29.83 "Hg9 mi
2:56 am53 °FMostly cloudy.7 mph83%29.83 "Hg10 mi
2:36 am54 °FMostly cloudy.8 mph82%29.81 "Hg10 mi
1:56 am53 °FOvercast.6 mph85%29.83 "Hg10 mi
1:16 am54 °FOvercast.7 mph88%29.82 "Hg10 mi
12:56 am55 °FOvercast.8 mph84%29.81 "Hg10 mi
11:56 pm
Tue, May 4
55 °FOvercast.8 mph85%29.80 "Hg10 mi
10:56 pm55 °FOvercast.6 mph83%29.81 "Hg10 mi
9:56 pm57 °FMostly cloudy.8 mph90%29.79 "Hg10 mi
Weather by CustomWeather, © 2021

See weather overview